This is the latest recevied weather packets stored in our database for station/object KI6SYE. If no packets are shown the sender has not sent any weather packets the latest 1 day(s).
| Time | Temp. | Humidity | Pressure | Rain* | Wind** | Luminosity | Snow |
|---|---|---|---|---|---|---|---|
| 1778041576 | 15.56° C | 85% | 1016.1 hPa | 0 mm | - | 0 W/m² | - |
| 1778040668 | 15.56° C | 84% | 1015.9 hPa | 0 mm | - | 0 W/m² | - |
| 1778040366 | 15.56° C | 84% | 1015.7 hPa | 0 mm | - | 0 W/m² | - |
| 1778039759 | 15.56° C | 82% | 1015.7 hPa | 0 mm | - | 0 W/m² | - |
| 1778039456 | 15.56° C | 82% | 1015.7 hPa | 0 mm | - | 0 W/m² | - |
| 1778039153 | 15.56° C | 82% | 1015.7 hPa | 0 mm | - | 0 W/m² | - |
| 1778038850 | 15.56° C | 83% | 1015.6 hPa | 0 mm | - | 0 W/m² | - |
| 1778038547 | 15.56° C | 82% | 1015.1 hPa | 0 mm | - | 0 W/m² | - |
| 1778038244 | 15.56° C | 82% | 1015.2 hPa | 0 mm | - | 0 W/m² | - |
| 1778037942 | 15.56° C | 82% | 1015.2 hPa | 0 mm | - | 0 W/m² | - |
| 1778037639 | 15.56° C | 82% | 1015.3 hPa | 0 mm | - | 0 W/m² | - |
| 1778037336 | 15.56° C | 82% | 1015.1 hPa | 0 mm | - | 0 W/m² | - |
| 1778037033 | 15.56° C | 82% | 1015.2 hPa | 0 mm | - | 0 W/m² | - |
| 1778035821 | 15.56° C | 81% | 1014.9 hPa | 0 mm | - | 1 W/m² | - |
| 1778035215 | 15.56° C | 81% | 1014.7 hPa | 0 mm | - | 4 W/m² | - |
| 1778034911 | 16.11° C | 81% | 1014.7 hPa | 0 mm | - | 6 W/m² | - |
| 1778034609 | 16.11° C | 80% | 1014.7 hPa | 0 mm | - | 8 W/m² | - |
| 1778034306 | 16.67° C | 79% | 1014.6 hPa | 0 mm | - | 11 W/m² | - |
| 1778033701 | 16.67° C | 79% | 1014.5 hPa | 0 mm | - | 20 W/m² | - |
| 1778033095 | 16.67° C | 79% | 1014.4 hPa | 0 mm | - | 30 W/m² | - |
| 1778032792 | 16.67° C | 80% | 1014.3 hPa | 0 mm | - | 40 W/m² | - |
| 1778032489 | 16.67° C | 80% | 1014.3 hPa | 0 mm | - | 52 W/m² | - |
| 1778031883 | 17.22° C | 78% | 1014.2 hPa | 0 mm | - | 72 W/m² | - |
| 1778031277 | 16.11° C | 79% | 1014.1 hPa | 0 mm | - | 80 W/m² | - |
| 1778030974 | 16.11° C | 79% | 1014.3 hPa | 0 mm | - | 69 W/m² | - |
* Rain latest hour (hover to see other rain measurements)
** Current wind speed in m/s (hover to see current wind gust speed)